| time (UTC) | temp F | wind direction | speed MPH | gust MPH | rain 1hr in | rain 24hr in | rain mn in | humidity % | barometer mb |
| 20260504001901 | 63 | 176 | 5.0 | 7.0 | 0.00 | 0.00 | 0.00 | 54 | 1009.0 |
| 20260504000902 | 64 | 180 | 6.0 | 6.0 | 0.00 | 0.00 | 0.00 | 53 | 1009.0 |
| 20260503235901 | 64 | 197 | 6.0 | 7.0 | 0.00 | 0.00 | 0.00 | 53 | 1008.9 |
| 20260503234901 | 65 | 202 | 7.0 | 12.0 | 0.00 | 0.00 | 0.00 | 50 | 1008.9 |
| 20260503233902 | 65 | 186 | 8.0 | 11.0 | 0.00 | 0.00 | 0.00 | 49 | 1009.0 |
| 20260503232902 | 65 | 206 | 8.0 | 10.0 | 0.00 | 0.00 | 0.00 | 50 | 1009.1 |
| 20260503231901 | 65 | 197 | 7.0 | 9.0 | 0.00 | 0.00 | 0.00 | 52 | 1009.2 |
| 20260503230902 | 65 | 192 | 8.0 | 8.0 | 0.00 | 0.00 | 0.00 | 51 | 1009.2 |
| 20260503225901 | 65 | 173 | 8.0 | 13.0 | 0.00 | 0.00 | 0.00 | 51 | 1009.2 |
| 20260503224901 | 64 | 201 | 8.0 | 16.0 | 0.00 | 0.00 | 0.00 | 51 | 1009.3 |
| 20260503223901 | 64 | 191 | 8.0 | 12.0 | 0.00 | 0.00 | 0.00 | 51 | 1009.5 |
| 20260503222901 | 65 | 188 | 9.0 | 12.0 | 0.00 | 0.00 | 0.00 | 50 | 1009.2 |
| 20260503221901 | 64 | 187 | 10.0 | 16.0 | 0.00 | 0.00 | 0.00 | 52 | 1009.3 |
| 20260503220902 | 63 | 184 | 10.0 | 10.0 | 0.00 | 0.00 | 0.00 | 53 | 1009.5 |
| 20260503215902 | 63 | 160 | 10.0 | 12.0 | 0.00 | 0.00 | 0.00 | 53 | 1009.7 |
| 20260503214902 | 63 | 189 | 11.0 | 13.0 | 0.00 | 0.00 | 0.00 | 53 | 1009.5 |
| 20260503213902 | 63 | 185 | 10.0 | 13.0 | 0.00 | 0.00 | 0.00 | 51 | 1009.7 |
| 20260503212902 | 62 | 193 | 10.0 | 13.0 | 0.00 | 0.00 | 0.00 | 54 | 1010.3 |
| 20260503211903 | 63 | 186 | 10.0 | 14.0 | 0.00 | 0.00 | 0.00 | 52 | 1010.4 |
| 20260503210901 | 63 | 182 | 10.0 | 10.0 | 0.00 | 0.00 | 0.00 | 52 | 1010.4 |
| 20260503205902 | 62 | 181 | 10.0 | 15.0 | 0.00 | 0.00 | 0.00 | 52 | 1010.6 |
| 20260503204901 | 63 | 181 | 9.0 | 11.0 | 0.00 | 0.00 | 0.00 | 52 | 1010.4 |
| 20260503203902 | 62 | 186 | 9.0 | 17.0 | 0.00 | 0.00 | 0.00 | 53 | 1010.4 |
| 20260503202902 | 61 | 149 | 8.0 | 13.0 | 0.00 | 0.00 | 0.00 | 54 | 1011.0 |
| 20260503201901 | 61 | 200 | 10.0 | 15.0 | 0.00 | 0.00 | 0.00 | 53 | 1011.4 |
| 20260503200901 | 61 | 180 | 9.0 | 9.0 | 0.00 | 0.00 | 0.00 | 52 | 1011.7 |
| 20260503195902 | 61 | 176 | 9.0 | 14.0 | 0.00 | 0.00 | 0.00 | 52 | 1011.7 |
| 20260503194901 | 61 | 175 | 8.0 | 13.0 | 0.00 | 0.00 | 0.00 | 51 | 1012.4 |
| 20260503193901 | 62 | 189 | 8.0 | 12.0 | 0.00 | 0.00 | 0.00 | 51 | 1012.5 |
| 20260503192902 | 61 | 198 | 8.0 | 15.0 | 0.00 | 0.00 | 0.00 | 51 | 1013.4 |
| 20260503191901 | 61 | 179 | 8.0 | 9.0 | 0.00 | 0.00 | 0.00 | 51 | 1013.6 |
| 20260503190901 | 62 | 197 | 8.0 | 8.0 | 0.00 | 0.00 | 0.00 | 52 | 1013.7 |
| 20260503185901 | 60 | 180 | 8.0 | 13.0 | 0.00 | 0.00 | 0.00 | 53 | 1014.3 |
| 20260503184902 | 60 | 187 | 7.0 | 10.0 | 0.00 | 0.00 | 0.00 | 51 | 1014.6 |
| 20260503183901 | 60 | 190 | 8.0 | 12.0 | 0.00 | 0.00 | 0.00 | 50 | 1014.6 |
| 20260503182901 | 60 | 176 | 8.0 | 11.0 | 0.00 | 0.00 | 0.00 | 49 | 1014.5 |
| 20260503181901 | 61 | 172 | 7.0 | 12.0 | 0.00 | 0.00 | 0.00 | 49 | 1014.4 |
| 20260503180901 | 62 | 185 | 8.0 | 8.0 | 0.00 | 0.00 | 0.00 | 45 | 1014.5 |
| 20260503175901 | 62 | 178 | 7.0 | 9.0 | 0.00 | 0.00 | 0.00 | 45 | 1014.6 |
| 20260503174901 | 64 | 192 | 7.0 | 13.0 | 0.00 | 0.00 | 0.00 | 42 | 1014.5 |
| 20260503173902 | 62 | 115 | 7.0 | 11.0 | 0.00 | 0.00 | 0.00 | 45 | 1015.1 |
| 20260503172901 | 62 | 166 | 9.0 | 12.0 | 0.00 | 0.00 | 0.00 | 45 | 1015.4 |
| 20260503171901 | 62 | 190 | 8.0 | 12.0 | 0.00 | 0.00 | 0.00 | 45 | 1015.4 |
| 20260503170901 | 62 | 178 | 8.0 | 8.0 | 0.00 | 0.00 | 0.00 | 46 | 1015.4 |
| 20260503150901 | 57 | 167 | 7.0 | 7.0 | 0.00 | 0.00 | 0.00 | 56 | 1017.6 |
| 20260503130902 | 49 | 207 | 6.0 | 6.0 | 0.00 | 0.00 | 0.00 | 71 | 1019.0 |
| 20260503080901 | 42 | 172 | 2.0 | 2.0 | 0.00 | 0.00 | 0.00 | 68 | 1019.2 |
| 20260503072902 | 42 | 178 | 2.0 | 2.0 | 0.00 | 0.00 | 0.00 | 67 | 1019.4 |
| 20260503071902 | 42 | 174 | 2.0 | 2.0 | 0.00 | 0.00 | 0.00 | 66 | 1019.5 |
| 20260503070901 | 42 | 178 | 2.0 | 2.0 | 0.00 | 0.00 | 0.00 | 65 | 1019.4 |
| 20260503054901 | 44 | 172 | 2.0 | 2.0 | 0.00 | 0.00 | 0.00 | 61 | 1019.9 |
| 20260503053901 | 44 | 172 | 2.0 | 2.0 | 0.00 | 0.00 | 0.00 | 61 | 1019.8 |
| 20260503052901 | 44 | 172 | 2.0 | 3.0 | 0.00 | 0.00 | 0.00 | 61 | 1019.8 |
| 20260503051902 | 44 | 172 | 1.0 | 2.0 | 0.00 | 0.00 | 0.00 | 62 | 1019.8 |
| 20260503050902 | 44 | 175 | 1.0 | 1.0 | 0.00 | 0.00 | 0.00 | 62 | 1019.8 |
| 20260503045901 | 44 | 173 | 1.0 | 1.0 | 0.00 | 0.00 | 0.00 | 61 | 1019.8 |
| 20260503044901 | 44 | 0 | 0.0 | 1.0 | 0.00 | 0.00 | 0.00 | 60 | 1019.8 |
| 20260503043902 | 45 | 180 | 1.0 | 2.0 | 0.00 | 0.00 | 0.00 | 59 | 1019.8 |
| 20260503042901 | 45 | 176 | 1.0 | 1.0 | 0.00 | 0.00 | 0.00 | 59 | 1019.8 |
| 20260503041902 | 45 | 180 | 1.0 | 2.0 | 0.00 | 0.00 | 0.00 | 58 | 1019.7 |
| 20260503040901 | 45 | 165 | 1.0 | 1.0 | 0.00 | 0.00 | 0.00 | 58 | 1019.7 |
| 20260503035901 | 45 | 169 | 1.0 | 2.0 | 0.00 | 0.00 | 0.00 | 57 | 1019.8 |
| 20260503034901 | 45 | 180 | 1.0 | 2.0 | 0.00 | 0.00 | 0.00 | 58 | 1019.9 |
| 20260503033901 | 45 | 0 | 0.0 | 0.0 | 0.00 | 0.00 | 0.00 | 59 | 1020.0 |
| 20260503032901 | 45 | 0 | 0.0 | 0.0 | 0.00 | 0.00 | 0.00 | 56 | 1020.0 |
| 20260503031901 | 44 | 0 | 0.0 | 0.0 | 0.00 | 0.00 | 0.00 | 59 | 1020.1 |
| 20260503030901 | 45 | 0 | 0.0 | 0.0 | 0.00 | 0.00 | 0.00 | 59 | 1020.1 |
| 20260503025901 | 45 | 0 | 0.0 | 0.0 | 0.00 | 0.00 | 0.00 | 59 | 1020.0 |
| 20260503024902 | 45 | 180 | 0.0 | 1.0 | 0.00 | 0.00 | 0.00 | 59 | 1020.0 |
| 20260503023902 | 45 | 0 | 0.0 | 0.0 | 0.00 | 0.00 | 0.00 | 58 | 1019.8 |
| 20260503022901 | 45 | 0 | 0.0 | 0.0 | 0.00 | 0.00 | 0.00 | 59 | 1019.8 |
| 20260503021902 | 46 | 0 | 0.0 | 0.0 | 0.00 | 0.00 | 0.00 | 57 | 1019.7 |
| 20260503020901 | 46 | 0 | 0.0 | 0.0 | 0.00 | 0.00 | 0.00 | 56 | 1019.7 |
| 20260503015901 | 47 | 0 | 0.0 | 0.0 | 0.00 | 0.00 | 0.00 | 56 | 1019.6 |
| 20260503014901 | 47 | 0 | 0.0 | 0.0 | 0.00 | 0.00 | 0.00 | 54 | 1019.4 |
| 20260503013902 | 47 | 0 | 0.0 | 0.0 | 0.00 | 0.00 | 0.00 | 55 | 1019.4 |
| 20260503012902 | 48 | 0 | 0.0 | 0.0 | 0.00 | 0.00 | 0.00 | 52 | 1019.2 |
| 20260503011901 | 49 | 0 | 0.0 | 0.0 | 0.00 | 0.00 | 0.00 | 52 | 1019.1 |
| 20260503010902 | 49 | 0 | 0.0 | 0.0 | 0.00 | 0.00 | 0.00 | 51 | 1019.1 |
| 20260503005903 | 51 | 0 | 0.0 | 0.0 | 0.00 | 0.00 | 0.00 | 47 | 1019.1 |
| 20260503004902 | 51 | 0 | 0.0 | 0.0 | 0.00 | 0.00 | 0.00 | 47 | 1018.9 |
| 20260503003904 | 52 | 0 | 0.0 | 0.0 | 0.00 | 0.00 | 0.00 | 44 | 1018.8 |
| 20260503002901 | 53 | 270 | 0.0 | 1.0 | 0.00 | 0.00 | 0.00 | 42 | 1018.8 |